Theta_e
326 325 325 325 326 326 326 326 324 324 323 323 323 323 322 322 321 320 320 319 321 321 318 318 319 319 319 319 318 317 316 315 314 315 315 314 314 314 313 313 314 313 313 312 311 311 310 310 310 311 309 308 308 308 308 309 309 310 311 311 311 311 311 311 312 312 310 310 310 310 310 310 310 311 311 311 312 312 312 312 312 313 314 315 317
325 325 325 326 326 325 324 324 324 323 323 322 323 323 322 322 321 321 321 320 320 322 320 319 319 319 319 319 319 317 316 316 315 315 316 315 314 315 313 312 313 313 312 311 311 311 310 309 310 311 310 308 307 308 308 308 308 309 309 309 309 309 309 309 310 310 310 310 310 310 310 310 310 311 311 311 311 310 310 310 311 311 311 312 313
324 324 324 325 325 325 324 324 325 325 324 323 323 322 322 321 321 321 322 320 320 321 322 321 320 319 319 319 319 318 317 317 316 316 316 315 315 315 313 312 313 312 312 311 312 312 311 310 310 310 310 309 309 309 308 308 308 309 308 308 308 307 307 308 309 310 311 311 311 311 310 310 310 309 309 309 309 309 309 309 310 310 310 310 311
323 322 323 323 324 324 323 323 323 325 325 325 325 324 323 322 322 322 322 321 321 321 322 321 320 320 319 319 319 319 318 317 316 316 316 315 316 315 314 313 312 312 312 311 311 311 311 311 311 310 310 309 309 309 308 309 309 308 307 307 307 307 307 307 307 308 309 309 309 309 309 308 308 309 309 309 309 309 309 309 309 309 309 310 310
323 323 322 322 322 322 322 322 323 325 326 325 324 323 322 322 322 321 321 321 319 320 321 321 321 320 320 319 319 319 318 317 317 316 316 315 316 315 314 313 313 312 312 312 311 310 310 310 309 309 309 308 308 308 308 308 308 307 307 307 306 307 306 306 307 307 307 307 307 307 307 307 307 308 308 308 308 309 309 309 309 309 309 309 309
324 323 323 323 322 322 323 324 325 326 325 323 323 323 322 321 321 320 320 320 319 319 319 321 321 320 320 320 319 319 319 318 317 316 316 315 316 315 314 313 313 312 312 312 311 310 309 309 308 308 308 307 307 307 307 307 307 306 306 306 306 305 305 305 306 306 306 307 307 307 306 306 307 307 307 307 308 308 308 308 309 309 310 310 311
320 322 323 323 323 324 325 325 326 326 324 323 322 322 322 321 320 319 320 320 320 320 321 321 321 320 320 319 319 320 319 319 318 317 316 316 315 315 314 313 313 313 312 312 310 310 309 308 308 307 307 306 306 306 306 306 305 304 303 302 302 302 302 303 303 304 304 305 305 306 306 306 306 307 307 307 307 307 308 308 309 309 310 311 312
316 318 318 318 319 320 320 321 322 324 324 324 323 322 321 320 319 319 320 320 320 321 321 321 321 320 320 320 320 320 319 319 318 318 316 316 315 315 315 314 313 313 312 311 310 309 308 307 306 306 306 305 305 305 305 302 300 298 297 298 299 300 301 301 301 302 302 303 304 304 305 305 305 306 306 307 307 308 308 308 308 308 309 309 309
314 315 315 314 314 314 314 314 316 318 318 318 320 321 321 321 322 322 322 321 321 321 321 320 321 320 320 320 320 320 320 320 319 318 317 316 316 315 315 314 313 313 311 310 309 307 307 306 305 305 304 304 304 304 302 298 295 293 293 295 297 298 299 298 299 299 299 300 301 302 302 303 304 304 305 305 306 307 307 307 307 307 307 308 308
312 312 312 312 312 313 313 314 316 317 317 316 318 319 319 321 323 323 323 323 322 322 322 321 321 320 320 321 321 320 319 319 319 318 317 317 316 315 315 314 313 312 311 309 307 306 305 305 304 304 303 303 303 302 300 298 296 294 294 294 295 296 297 297 297 297 298 299 299 300 301 301 302 303 303 304 305 305 305 306 306 307 307 308 308
310 310 310 309 309 309 311 311 312 313 314 316 317 318 319 320 321 322 322 323 323 323 323 323 322 321 321 321 321 319 318 318 318 318 318 317 316 315 314 314 313 312 310 308 307 306 305 304 304 304 303 302 301 301 300 299 298 297 297 297 297 297 297 296 296 297 297 298 299 299 299 300 301 301 302 302 303 303 304 304 305 306 307 307 307
309 309 308 308 307 308 308 308 308 309 310 311 312 315 316 317 318 319 319 320 321 322 323 323 323 322 322 322 320 319 318 318 318 318 317 316 315 315 313 313 311 310 308 307 306 306 305 304 304 304 303 303 302 301 301 300 299 299 299 299 299 298 297 297 297 297 297 298 298 299 299 299 300 300 300 301 301 302 302 302 303 304 304 305 305
309 309 308 308 308 308 307 308 308 308 309 309 309 311 312 314 315 316 317 318 319 320 320 321 322 322 322 322 321 319 318 318 318 318 317 315 314 313 312 311 309 307 307 306 305 305 304 304 304 304 303 303 302 302 301 301 300 300 300 299 299 298 298 298 298 297 297 297 298 298 299 299 299 299 300 300 300 300 301 301 301 302 302 302 303
308 308 308 308 308 308 308 308 309 309 308 309 308 309 309 311 313 314 316 316 317 318 319 319 320 321 322 321 320 320 319 318 317 316 315 314 313 312 310 309 307 306 306 305 305 304 304 303 303 303 302 302 302 302 301 301 301 301 301 300 299 299 298 298 298 298 298 298 298 298 298 298 298 299 299 299 300 300 300 299 299 299 299 299 299
308 308 308 308 307 308 308 308 308 309 308 308 308 308 309 309 311 313 315 315 315 316 317 318 319 319 320 320 319 318 318 318 317 315 313 313 311 310 308 307 306 306 305 304 304 304 303 303 302 302 302 302 301 301 301 301 301 301 300 299 299 298 298 297 297 297 298 298 298 298 298 298 299 299 299 299 300 299 298 297 297 297 297 297 298
308 308 307 307 307 308 309 309 308 308 308 308 308 308 308 309 310 311 313 315 315 315 315 316 317 318 319 319 318 317 316 316 315 314 312 311 310 308 307 306 305 305 304 303 303 303 302 302 302 302 302 301 302 301 301 301 300 300 299 298 298 297 297 297 297 297 298 298 298 298 298 298 298 298 298 298 298 297 297 296 296 296 296 296 297
307 307 307 307 307 308 308 308 308 308 308 308 308 307 308 308 309 310 311 313 314 315 315 315 315 316 317 318 318 316 315 315 314 312 312 311 310 307 306 305 304 304 303 303 303 303 302 302 302 302 302 301 302 301 301 300 299 299 298 298 298 297 297 297 297 297 297 297 297 297 297 296 296 297 297 297 296 296 296 295 295 295 295 296 296
307 307 307 307 306 307 308 308 308 308 308 308 307 307 307 307 308 308 309 311 313 314 314 314 314 315 316 317 317 316 315 313 312 311 310 310 308 305 304 303 303 303 303 303 303 303 302 302 302 302 301 301 301 300 299 299 298 298 298 298 297 297 297 297 297 297 297 296 296 296 296 296 296 296 296 296 296 296 296 296 295 295 295 295 296
307 307 307 306 306 306 307 307 308 308 308 308 308 308 308 308 308 308 308 310 312 313 313 313 313 313 314 316 316 315 314 311 308 308 308 306 304 302 301 302 302 302 302 302 302 302 302 302 301 301 301 300 300 299 298 297 297 296 296 296 296 296 296 296 296 296 295 295 295 295 294 294 294 294 294 294 295 296 296 296 296 296 295 295 296
307 307 307 306 306 306 306 307 307 307 308 308 309 309 309 308 308 308 308 309 311 312 312 312 313 313 313 314 313 313 312 309 306 306 304 302 300 301 301 300 300 300 301 301 301 301 301 300 300 299 299 299 298 297 296 296 295 294 294 294 294 294 294 294 294 293 293 292 292 292 292 293 293 293 293 293 293 294 294 295 296 296 296 296 296
307 307 307 306 306 305 305 306 306 307 307 308 309 309 309 309 308 308 308 309 310 311 311 313 313 311 310 310 309 310 310 307 304 301 299 298 298 299 299 298 299 299 299 299 299 298 298 298 297 297 297 297 296 296 295 295 294 293 293 292 292 292 292 291 291 291 290 291 291 291 291 291 292 292 292 292 293 293 294 294 295 295 296 296 296
306 306 306 306 306 306 305 305 306 306 307 307 308 309 309 309 308 308 308 309 310 311 312 313 312 309 306 306 306 306 306 304 301 298 296 296 296 296 296 297 299 299 298 296 296 296 296 297 297 297 296 296 295 295 294 293 292 292 291 291 291 291 291 290 290 290 290 290 291 291 291 291 291 291 292 292 292 293 293 294 294 295 295 295 296
305 306 306 306 306 305 305 305 305 306 306 306 307 308 309 310 309 309 309 309 311 312 313 311 309 306 304 303 302 302 302 300 298 296 295 295 296 296 295 295 296 295 294 294 295 296 296 297 297 296 296 295 294 294 293 292 292 291 291 291 291 291 291 290 290 290 290 291 291 291 291 291 291 291 291 292 292 292 293 293 294 294 294 295 295
305 305 305 305 305 305 305 305 305 305 306 306 306 307 309 310 310 310 309 310 312 313 312 310 307 305 303 301 300 300 298 297 296 296 296 296 295 294 294 292 292 292 292 294 295 296 296 297 296 296 295 294 293 293 292 292 292 292 291 291 291 291 291 291 291 291 291 291 291 291 291 291 291 291 291 292 292 292 292 293 293 293 294 294 294
305 305 305 304 304 305 305 305 305 305 306 306 306 307 308 310 310 310 311 312 313 312 311 309 306 304 302 301 299 298 297 296 295 295 294 294 293 293 293 294 294 294 294 295 296 296 296 296 295 294 294 293 293 293 292 292 292 292 292 291 292 292 292 291 291 292 292 292 292 292 292 292 292 292 292 292 292 292 292 292 293 293 293 293 293
304 304 305 305 304 304 304 304 304 305 305 306 307 307 308 309 309 310 312 312 311 309 307 306 305 304 303 302 299 297 296 295 295 294 294 295 295 295 296 296 296 296 296 296 296 296 295 294 293 293 293 293 293 293 293 293 292 292 292 292 292 292 292 292 292 292 292 292 292 292 292 292 292 292 292 292 292 292 292 293 293 293 293 293 294
304 304 305 305 305 305 305 305 304 304 305 305 306 307 309 310 310 311 311 311 309 307 304 303 303 302 302 301 299 297 295 294 295 295 296 296 297 296 296 296 296 296 296 295 294 293 293 292 293 293 294 294 294 293 293 293 293 292 292 291 291 292 291 291 291 291 291 291 291 291 291 291 291 292 292 292 292 292 293 293 293 293 293 293 294
304 304 304 305 305 305 305 305 305 305 305 306 307 308 310 310 310 310 310 310 308 306 303 302 302 301 301 301 299 298 297 296 296 295 295 295 295 295 295 295 294 294 294 293 292 292 292 293 294 294 294 293 293 293 293 292 292 291 291 291 291 291 291 291 291 291 291 291 291 291 291 291 291 291 291 291 291 292 292 292 293 293 293 293 293
303 303 303 304 304 304 304 305 305 305 306 307 307 309 309 309 309 309 308 308 307 304 302 302 301 300 300 300 299 297 296 295 295 294 293 293 292 292 292 292 291 291 292 291 292 292 293 293 293 293 293 293 292 292 292 291 291 291 291 291 291 291 291 291 291 291 291 291 291 291 291 291 291 291 291 291 291 291 291 292 292 292 293 293 293
302 302 302 303 303 303 303 304 304 305 306 306 306 306 306 306 307 307 306 306 304 301 300 300 300 299 299 298 297 296 294 293 292 292 291 291 290 290 290 291 291 291 292 292 292 292 293 293 293 293 292 292 292 291 291 291 291 291 291 291 291 290 290 290 290 290 290 290 290 290 290 290 290 290 290 290 290 291 291 291 292 292 292 292 293
302 302 302 303 303 303 303 304 304 305 306 304 303 302 301 300 301 302 303 302 300 299 299 299 299 298 298 296 295 293 292 292 291 291 291 291 290 290 290 291 291 291 292 292 292 292 293 293 293 292 292 291 291 291 291 291 291 291 291 290 290 290 290 290 290 290 290 290 290 290 289 289 289 289 290 290 290 290 290 290 291 291 291 292 292
303 303 303 303 303 303 303 304 305 306 304 302 300 299 297 296 296 297 298 298 298 297 297 297 296 297 297 295 294 293 292 292 292 292 291 290 290 290 291 292 292 291 291 292 292 293 293 292 292 292 292 291 291 291 291 291 291 290 290 290 290 290 290 290 290 290 289 289 289 289 289 289 289 289 289 289 289 289 290 290 290 290 291 291 291
303 303 303 303 304 303 304 305 306 306 303 300 298 297 296 295 294 294 294 295 295 295 295 295 296 295 295 295 295 294 293 292 292 292 291 291 291 291 292 292 291 291 291 292 292 292 292 292 292 291 291 291 291 291 290 290 290 290 290 290 290 290 289 289 289 289 289 289 289 289 289 289 289 289 289 289 289 289 289 289 290 290 290 290 291
303 303 303 303 304 304 304 306 307 305 302 300 298 297 296 296 294 294 294 293 293 293 293 294 294 294 294 293 293 293 292 292 292 292 292 291 292 292 292 292 292 292 292 292 293 292 292 291 291 291 291 291 290 290 290 290 290 290 289 289 289 289 289 289 289 289 289 289 289 289 288 288 288 288 288 288 289 289 289 289 289 290 290 290 290
303 303 303 304 305 306 306 306 305 303 300 299 297 296 296 295 295 294 294 293 292 292 291 291 292 292 292 292 291 291 292 292 293 293 293 292 292 292 292 293 293 293 292 292 293 292 291 291 291 291 290 290 290 290 290 289 289 289 289 289 289 288 288 288 288 288 288 288 288 288 288 288 288 288 288 288 288 288 289 289 289 290 290 290 290
302 303 304 304 305 306 306 305 303 301 299 298 297 295 295 295 295 294 293 292 292 291 291 291 291 290 291 291 291 291 292 293 293 293 293 293 293 293 293 293 293 293 292 292 292 292 291 291 291 290 290 290 290 289 289 289 289 289 289 288 288 288 288 288 288 288 288 288 288 288 288 288 288 288 288 288 288 288 289 289 289 289 290 290 290
301 303 305 306 305 304 304 303 301 299 298 297 296 295 295 295 295 294 293 293 292 291 290 290 291 290 291 291 291 291 292 293 293 293 293 293 293 293 294 294 293 293 292 292 292 291 291 291 290 290 290 290 289 289 289 289 288 288 288 288 288 287 287 288 288 288 288 288 288 288 288 288 288 288 288 288 288 288 289 289 289 289 289 290 290
301 303 306 305 303 302 301 300 298 297 296 296 296 295 295 295 295 294 294 293 293 292 292 292 292 292 292 291 291 292 292 292 293 293 293 294 294 294 294 294 293 292 292 292 292 291 291 291 290 290 290 289 289 289 289 288 288 288 287 287 287 287 287 287 287 287 288 288 288 288 288 288 288 288 288 288 288 288 289 289 289 289 289 290 290
302 304 305 304 301 300 299 297 296 296 296 296 296 296 296 296 295 295 294 294 294 294 294 293 292 292 292 292 292 292 292 292 293 294 294 294 294 294 294 294 293 292 292 292 291 291 291 291 290 290 289 289 289 289 289 288 288 287 287 287 287 287 287 287 287 287 287 287 287 287 287 287 287 288 288 288 288 289 289 289 289 289 289 290 290
302 302 302 301 299 298 297 296 296 296 296 296 296 296 296 296 296 295 295 295 295 296 295 295 294 294 294 294 293 293 293 294 294 295 295 295 295 295 294 294 293 292 292 291 291 291 291 290 290 290 289 289 289 289 289 288 288 287 287 287 287 287 287 287 287 287 287 287 287 287 287 287 287 288 288 288 288 289 289 289 289 289 290 290 290
299 298 298 297 297 296 296 296 296 296 296 296 296 296 296 296 296 296 296 296 296 297 296 296 296 295 295 295 294 293 294 295 296 295 295 295 295 295 294 293 293 292 292 291 291 291 291 290 290 289 289 289 289 289 288 288 288 287 287 287 287 287 287 287 287 287 287 287 287 287 287 287 287 287 288 288 288 289 289 289 289 289 290 290 290
296 296 296 296 296 296 296 296 296 296 296 296 296 296 297 297 297 297 297 297 297 297 297 296 295 294 294 294 294 294 295 295 295 295 295 295 295 294 294 293 293 292 291 291 291 291 290 290 289 289 289 289 289 288 288 288 288 287 287 287 287 286 286 286 286 286 287 287 287 287 287 287 287 288 288 288 289 289 289 289 289 290 290 290 291
296 296 296 297 297 296 296 296 296 296 296 297 297 297 297 297 298 297 297 297 297 297 296 295 295 295 294 294 294 294 295 295 295 295 295 294 294 294 293 293 292 292 291 291 291 290 290 290 289 289 289 289 289 288 288 288 287 287 286 286 286 286 286 286 286 286 287 287 287 287 287 288 288 288 289 289 289 289 290 291 291 291 291 291 291
297 297 297 297 297 297 297 297 297 297 297 297 297 297 297 298 298 297 297 297 297 297 297 296 296 296 296 295 295 295 295 295 295 294 294 294 294 293 293 292 292 291 291 291 290 290 290 289 289 289 289 289 288 288 288 287 287 287 287 286 286 286 286 286 286 287 287 287 287 288 288 288 289 289 289 289 290 290 291 292 293 293 292 292 292
298 298 298 298 298 298 298 298 298 298 298 298 298 298 298 298 297 297 297 297 297 297 296 296 296 296 296 295 295 295 295 294 294 294 293 293 292 292 292 291 291 290 290 290 290 290 289 289 289 289 289 289 288 288 288 287 287 287 287 286 286 286 287 287 287 288 288 288 288 288 289 289 289 289 289 290 290 291 292 292 293 293 293 293 293
298 298 298 298 298 298 298 298 298 298 298 298 297 297 297 296 296 296 296 296 297 296 296 296 295 295 295 295 294 294 294 294 293 293 293 292 292 291 291 290 289 289 289 289 290 289 289 289 289 289 289 289 288 288 288 287 287 287 286 286 286 287 288 288 289 289 289 289 289 289 289 289 289 289 290 290 291 291 292 292 293 293 293 293 293
297 297 297 297 296 296 296 297 297 297 296 297 296 296 296 296 295 295 295 295 296 296 296 295 295 294 294 294 293 293 293 293 292 292 292 292 291 290 290 289 288 288 288 289 289 289 289 289 289 289 289 289 288 288 288 288 287 286 285 286 287 288 289 289 289 289 289 289 289 289 289 289 289 289 290 290 291 291 292 292 292 293 293 293 292
296 296 296 296 296 296 296 296 295 295 295 295 295 295 296 295 295 295 295 295 295 295 295 294 294 293 293 292 292 292 291 291 292 292 292 291 290 289 289 288 287 287 288 289 289 289 289 289 289 289 289 289 289 289 288 288 287 285 285 286 288 289 289 290 290 289 289 289 289 289 289 289 290 290 290 290 290 291 291 292 292 292 292 292 292
295 295 295 295 296 296 296 295 295 295 295 294 294 294 295 295 295 295 294 294 294 294 293 293 293 292 292 291 291 291 291 291 291 291 291 290 289 288 288 287 286 286 287 288 289 289 289 289 289 289 289 289 289 289 288 288 286 285 285 286 288 289 290 290 290 290 289 289 290 290 290 290 290 290 290 290 290 290 291 291 291 291 291 291 291
294 294 294 294 294 294 295 294 294 294 294 294 294 293 293 293 293 293 293 292 292 292 292 292 291 291 291 290 290 289 289 289 289 290 290 289 288 287 287 286 286 286 287 288 288 288 288 288 289 289 289 289 289 289 288 287 286 285 284 286 288 289 290 290 290 290 289 289 290 290 290 290 290 290 290 290 290 290 290 291 291 291 291 291 291
293 293 293 293 293 293 293 293 293 293 293 293 292 292 292 291 291 291 290 290 290 290 290 290 289 289 289 289 288 288 287 288 288 288 288 287 287 286 286 285 285 286 286 287 287 288 288 288 289 289 289 289 289 289 288 287 286 285 284 285 288 289 290 290 290 290 289 289 290 290 290 290 290 290 290 290 290 290 290 291 291 291 291 291 291
Wind_Speed
8 13 17 16 15 15 15 14 14 13 13 11 11 13 15 13 12 13 14 15 15 16 17 17 17 16 16 16 15 15 15 15 14 13 12 12 12 11 11 11 10 9 8 6 5 4 2 1 1 1 2 3 4 4 4 5 6 7 6 5 5 5 4 6 7 8 11 13 14 15 15 15 16 15 15 15 16 16 16 16 16 17 18 18 18
6 8 11 12 13 13 13 13 12 11 12 13 10 10 13 14 12 11 12 15 16 16 17 18 19 19 18 18 18 18 17 17 16 15 14 13 13 12 12 11 11 10 10 8 7 7 5 3 2 2 2 3 4 4 5 6 6 7 7 6 7 8 7 9 10 10 12 14 15 15 15 14 14 14 14 16 17 17 17 17 17 17 17 18 19
5 2 4 7 9 10 8 9 9 9 11 12 10 11 13 14 14 10 9 11 14 16 18 19 19 20 20 20 20 20 19 18 18 17 16 15 15 15 13 12 12 11 11 8 8 8 7 5 3 3 3 3 3 3 5 5 5 6 7 7 8 10 10 10 11 12 13 15 15 14 14 14 15 16 16 17 17 17 17 18 18 18 18 18 19
8 5 4 3 4 3 3 1 5 6 8 10 9 9 11 12 13 12 12 11 12 14 17 20 21 21 22 22 21 21 20 20 20 20 18 17 17 16 15 14 13 12 11 9 8 8 7 6 5 4 4 3 3 4 4 4 4 5 7 8 8 10 10 10 10 12 14 15 15 16 16 17 18 17 17 17 17 17 18 18 17 17 18 18 19
11 13 13 9 5 2 2 5 7 7 8 10 11 11 13 13 12 13 15 17 17 17 19 21 23 23 23 23 22 22 22 21 21 21 20 19 18 17 15 15 14 13 12 10 9 9 7 6 6 5 4 3 3 4 3 3 4 5 7 8 9 11 12 12 12 13 15 17 18 18 18 18 18 18 17 17 18 18 17 17 17 17 18 19 20
10 11 12 13 12 11 10 9 10 11 13 14 15 15 16 17 17 17 17 18 20 23 25 25 25 26 25 24 23 22 22 22 22 22 20 19 19 18 16 15 15 13 12 11 10 10 9 8 6 6 6 5 4 4 3 3 4 4 6 7 8 10 12 12 12 13 15 17 18 19 19 19 19 18 17 17 19 19 18 18 18 18 18 18 18
7 7 8 10 11 11 12 12 10 10 12 13 14 15 15 17 19 20 20 17 19 24 28 28 25 23 22 23 24 24 23 22 22 21 20 19 19 18 17 15 14 13 12 12 10 9 9 8 7 7 7 6 5 5 4 3 3 3 5 7 8 9 11 11 12 13 15 17 17 18 19 19 19 19 18 17 18 18 18 19 18 16 15 15 17
9 8 7 8 7 7 8 9 8 7 7 7 8 11 13 14 15 18 19 19 20 24 27 27 25 23 21 21 22 24 23 22 22 21 19 19 19 18 17 16 15 14 13 12 11 10 9 8 8 7 8 8 8 8 7 6 6 7 7 6 7 8 9 10 11 13 15 16 17 17 18 18 18 19 18 17 16 16 16 17 19 19 20 20 21
9 10 9 7 6 6 6 5 6 6 5 5 6 7 9 11 12 14 18 20 22 25 27 27 27 28 26 24 23 20 17 17 18 18 19 19 19 19 18 17 16 15 15 13 11 11 10 9 9 9 10 11 11 11 9 10 11 12 10 8 8 7 8 9 10 12 14 15 16 17 17 17 17 18 18 17 17 18 19 21 22 23 23 23 23
6 7 8 6 4 5 5 5 5 4 4 5 5 5 7 9 11 14 17 20 23 25 26 26 26 27 24 23 25 24 20 19 17 16 19 20 19 19 18 17 16 15 15 13 12 12 11 10 10 12 13 12 12 12 12 12 11 10 10 10 9 8 8 10 11 11 12 13 15 15 16 16 17 17 18 18 20 21 21 21 21 21 21 20 19
5 4 5 5 3 3 4 3 3 3 3 3 4 5 7 8 9 12 14 17 20 21 20 19 20 22 21 20 24 27 26 26 23 21 22 22 21 19 18 17 16 14 14 13 12 12 11 10 11 12 13 13 13 14 13 11 9 9 10 9 9 9 10 12 12 12 12 13 14 15 15 16 17 17 18 19 19 19 19 20 20 21 20 16 14
5 5 4 4 3 3 2 2 1 1 0 1 2 2 3 4 6 8 9 11 13 13 13 13 14 17 21 22 23 24 25 25 24 23 24 24 23 20 18 17 15 13 12 12 11 11 11 11 10 10 11 12 12 12 10 10 10 12 11 10 10 10 12 13 14 14 15 15 15 15 16 17 18 18 18 19 20 21 22 22 21 20 20 18 16
5 5 4 3 3 2 1 2 2 1 0 1 3 3 4 5 7 7 8 8 9 9 10 10 11 12 16 18 21 23 23 21 20 22 25 26 24 20 17 16 14 13 12 11 11 10 9 9 9 9 9 10 10 10 9 11 13 12 11 11 11 12 13 14 15 17 19 20 20 19 18 18 18 19 19 19 22 23 21 20 19 19 20 19 20
4 3 2 2 2 1 2 1 0 1 1 2 3 5 6 7 7 7 7 8 9 10 11 11 11 10 10 12 15 20 22 22 21 22 26 28 25 20 15 13 13 12 11 12 11 10 9 8 7 8 8 9 10 9 9 10 11 10 8 9 10 11 13 15 17 19 21 23 25 25 24 22 22 23 22 21 20 19 17 17 19 21 23 25 27
4 3 3 2 2 2 2 1 1 1 2 3 4 5 6 7 8 8 9 9 10 10 11 12 13 13 11 10 13 17 20 22 23 24 26 26 24 20 14 11 12 11 9 10 10 10 9 8 9 9 10 10 10 11 11 12 11 10 9 10 12 14 16 17 18 20 22 23 24 25 24 23 23 23 22 21 21 22 23 25 25 25 27 29 30
4 4 4 3 4 3 3 1 0 2 3 4 5 6 6 7 8 9 9 10 11 11 12 12 13 14 14 13 15 17 17 20 24 25 26 24 22 19 13 10 11 11 9 9 10 10 9 9 10 11 11 11 12 13 14 14 15 14 14 14 16 18 18 18 18 19 21 21 22 22 22 22 23 24 25 26 28 29 30 30 29 28 28 27 27
6 5 4 5 5 4 3 3 3 3 4 4 5 6 6 7 8 10 10 11 11 12 13 13 13 13 15 15 17 18 19 21 24 25 25 24 22 19 14 10 10 11 10 10 10 10 10 10 11 11 11 11 12 13 13 14 14 14 16 17 18 19 19 19 19 19 19 20 21 23 24 24 25 25 25 26 28 29 30 28 25 24 24 21 21
6 5 5 5 5 4 4 5 4 5 5 6 7 7 7 8 9 11 12 12 12 12 13 13 14 14 14 16 17 18 20 23 24 24 24 23 20 17 13 10 10 11 11 11 10 10 9 10 11 12 12 12 13 13 13 13 14 14 15 16 17 18 19 19 19 19 19 20 21 22 23 24 25 25 25 24 23 24 27 28 25 22 21 19 19
6 6 6 6 6 6 6 6 6 7 7 8 8 8 8 9 10 11 12 13 13 13 13 14 14 12 10 11 15 17 20 23 23 22 21 20 18 16 11 8 8 8 9 9 8 8 7 8 9 11 13 13 13 12 12 11 11 11 12 13 15 17 18 18 19 20 22 24 25 26 27 27 28 29 29 28 25 22 24 26 26 24 22 20 20
8 8 8 8 8 9 8 8 9 9 9 9 9 9 9 10 11 12 14 14 13 13 12 11 8 5 5 8 12 15 19 23 22 20 20 19 18 15 9 5 3 3 5 5 6 5 5 6 7 8 10 11 11 10 10 10 11 12 14 16 18 19 20 21 23 25 27 28 29 29 29 29 28 27 27 26 26 25 25 26 25 25 24 22 21
11 10 10 10 11 11 11 11 10 10 10 10 10 10 11 11 12 14 14 15 15 14 10 5 3 7 7 9 12 13 18 23 22 20 18 16 13 10 7 3 1 4 4 4 5 5 5 7 7 5 7 9 9 10 11 13 15 18 19 19 19 20 21 22 23 24 24 25 25 24 24 23 22 21 21 21 22 22 23 24 24 25 25 24 22
12 13 13 13 14 14 14 13 12 11 11 11 12 12 12 13 14 14 15 16 15 10 5 6 10 13 11 9 11 15 20 23 22 19 16 12 9 7 6 4 3 4 5 6 7 7 7 8 7 4 6 9 12 14 17 18 19 19 18 17 17 17 18 20 21 22 21 21 21 20 20 19 19 19 19 20 20 20 21 23 23 23 24 25 24
15 15 15 15 16 16 15 14 14 13 13 14 14 14 13 14 14 14 17 18 13 5 7 13 15 17 16 14 14 19 21 20 18 16 14 11 8 6 5 5 6 7 7 7 7 7 8 8 7 7 10 14 16 18 18 17 15 15 14 15 15 16 17 20 21 20 20 19 19 19 18 18 18 19 19 19 19 20 21 22 22 22 22 23 24
16 17 17 17 17 17 17 16 16 16 16 16 16 16 15 14 14 15 16 14 9 7 11 16 17 17 18 18 17 19 20 17 15 13 10 9 7 5 5 5 5 5 5 5 6 7 9 10 12 15 18 18 17 16 14 12 12 13 14 16 16 17 19 19 18 17 18 18 18 18 18 18 19 19 19 20 20 21 22 23 23 24 25 25 24
18 19 19 19 18 18 18 18 17 17 17 17 17 16 14 13 14 14 11 7 7 10 14 16 17 18 18 18 18 19 19 16 14 10 7 6 5 3 2 1 1 3 4 3 5 7 9 12 15 17 17 15 12 11 10 11 12 14 15 16 16 18 18 17 16 16 17 17 18 18 19 19 20 21 22 22 23 23 23 23 23 23 25 26 27
18 18 18 19 19 18 18 18 17 17 17 17 17 16 14 13 11 7 5 6 10 12 14 15 16 17 18 18 19 20 19 15 13 12 10 8 6 4 2 1 2 4 6 4 4 7 10 13 14 14 12 11 11 12 11 11 13 14 14 15 16 16 16 15 15 17 17 18 19 20 21 21 22 23 23 23 23 23 23 23 23 23 23 24 24
18 19 18 18 18 18 18 18 17 17 17 16 16 13 9 7 7 7 8 9 12 13 15 16 17 17 17 19 20 20 18 16 15 13 10 7 4 2 1 2 3 4 4 4 6 10 12 11 10 9 10 10 11 11 11 11 13 13 14 15 16 16 16 17 18 19 20 21 22 23 23 22 22 22 21 21 22 22 22 22 23 22 21 21 22
21 20 19 19 19 18 18 17 18 18 15 11 7 3 5 6 9 11 11 12 12 15 18 18 17 17 18 20 20 19 17 17 15 13 10 7 5 4 3 1 1 2 5 8 9 9 8 7 7 8 10 10 10 11 11 12 13 14 15 16 16 17 18 19 20 21 21 21 22 22 22 22 21 21 22 22 22 22 22 22 22 22 21 21 20
22 20 18 19 20 20 19 19 18 16 8 2 4 7 10 10 10 11 12 12 13 16 19 19 17 17 18 19 21 22 21 18 15 11 9 7 5 4 3 2 2 3 5 7 6 5 5 6 7 9 11 11 11 12 12 13 14 15 16 16 17 18 19 19 20 21 21 21 22 23 23 23 23 23 23 23 23 23 23 23 22 22 22 21 20
20 18 18 19 20 21 20 18 16 11 5 10 12 12 12 11 10 10 11 12 15 18 19 18 18 20 21 21 22 23 21 17 13 10 7 5 4 2 1 2 3 4 5 5 5 5 6 8 8 9 11 12 12 12 13 14 15 16 16 17 18 19 19 20 20 21 22 22 23 24 25 25 25 25 24 24 24 24 23 23 23 22 21 21 21
19 18 17 17 18 18 16 14 12 7 9 16 19 20 20 18 15 14 15 18 20 20 20 19 20 22 23 24 22 20 17 15 12 9 6 5 4 4 5 6 8 7 6 7 7 6 7 9 10 10 11 11 11 12 13 14 15 16 17 18 19 20 20 21 22 22 22 23 24 25 25 25 25 25 25 25 25 25 25 24 24 23 23 22 22
20 18 16 16 15 14 14 15 11 7 15 19 22 26 29 28 26 25 24 24 24 23 23 23 22 21 21 21 20 18 15 13 10 8 6 5 6 6 6 7 7 6 6 7 7 6 7 10 11 11 11 11 12 13 15 15 16 17 18 19 19 21 22 23 23 24 24 25 25 25 26 26 26 26 26 26 25 25 24 23 23 23 23 24 24
21 20 18 17 16 16 17 15 11 16 20 20 22 27 31 30 30 29 28 27 26 24 23 22 21 20 18 17 16 15 14 11 10 8 7 6 7 7 5 3 3 2 5 6 6 6 9 10 10 11 12 13 14 15 16 17 17 18 19 20 21 22 24 25 25 25 26 26 26 26 26 27 26 26 26 25 25 24 24 24 24 24 23 24 24
22 21 19 18 17 17 15 13 16 22 23 22 23 26 29 31 32 31 29 27 24 23 21 19 17 17 16 15 13 13 12 11 10 10 8 6 6 4 3 3 3 2 2 4 6 7 10 11 11 11 12 13 15 16 17 17 18 19 21 22 23 24 25 25 25 26 27 27 26 26 26 27 27 27 26 25 24 24 23 23 23 23 22 22 22
20 19 19 19 16 12 9 12 19 24 24 23 24 25 27 29 28 26 26 25 24 23 20 18 16 15 14 13 12 11 11 11 10 10 10 7 4 1 3 5 3 2 2 4 5 8 10 10 11 12 13 14 15 16 17 18 19 21 22 23 24 25 26 26 26 26 27 26 26 27 28 28 28 27 27 26 25 24 24 23 23 23 23 22 22
20 17 15 14 13 11 11 16 22 24 24 24 23 23 25 25 25 25 26 26 24 22 20 17 16 14 13 12 11 10 10 9 9 9 9 6 2 2 5 5 4 4 4 5 6 8 9 10 11 12 13 14 16 17 17 18 20 22 23 24 25 26 26 27 27 27 27 28 28 29 29 29 28 27 26 26 25 25 24 24 24 24 24 24 23
20 16 12 11 12 14 17 20 23 24 26 29 27 24 23 25 26 27 26 25 23 22 20 18 16 13 12 10 9 9 9 8 7 6 6 5 2 2 5 5 4 5 6 7 8 9 9 10 11 11 13 14 15 16 17 19 21 23 24 25 25 26 27 28 29 29 29 29 29 29 29 28 28 27 26 26 25 24 24 24 24 24 24 24 23
20 16 12 13 16 21 25 27 26 27 30 32 29 25 24 25 25 25 24 23 21 19 18 16 14 13 12 12 10 9 8 7 7 7 6 6 4 2 3 3 6 7 7 8 8 8 9 10 11 11 12 13 15 16 17 19 21 23 24 26 27 27 28 29 29 29 29 29 28 29 29 28 28 27 26 25 25 24 24 24 23 23 23 23 23
21 19 18 21 25 29 31 32 31 31 31 29 27 25 23 23 23 22 21 20 17 14 14 15 14 14 14 12 11 10 9 8 10 11 10 9 7 3 2 5 7 7 6 7 8 8 9 10 10 11 13 14 15 16 17 18 21 23 25 27 28 28 28 29 29 29 29 29 29 29 29 28 28 27 26 25 24 24 24 24 23 23 22 22 22
19 21 25 30 33 34 35 34 32 29 28 27 26 25 23 22 21 20 19 18 17 16 16 15 14 15 15 13 12 11 10 9 11 11 8 5 2 2 5 6 6 6 6 7 8 8 8 9 10 11 13 14 15 17 18 20 23 25 26 27 28 29 29 29 29 29 29 29 29 29 28 28 27 26 25 24 24 24 24 24 24 23 23 23 23
26 28 31 33 34 34 33 31 28 27 26 26 25 24 23 22 20 18 17 17 17 16 14 14 14 15 16 13 10 8 5 4 5 2 3 5 6 5 6 6 6 7 7 8 8 8 8 9 10 11 13 14 17 19 20 21 24 26 28 29 29 29 29 30 30 30 30 29 29 28 27 27 26 25 24 24 24 23 23 24 24 23 23 22 22
30 30 30 30 30 30 29 29 28 28 27 26 24 24 22 20 18 17 17 18 17 14 15 17 15 12 10 7 4 3 2 4 7 7 6 7 6 4 4 5 7 7 7 7 8 7 7 8 10 11 13 16 19 20 21 22 25 27 29 29 29 29 30 30 30 31 31 30 29 28 27 27 26 25 24 24 23 22 22 23 22 21 20 19 19
30 28 27 25 25 26 27 28 28 27 26 24 23 22 20 19 18 17 16 15 13 14 18 17 12 11 9 6 5 5 4 4 5 5 5 5 4 4 5 7 7 6 6 7 7 7 7 8 10 11 14 17 19 21 21 22 25 28 29 30 30 30 30 30 31 32 31 31 30 29 27 26 25 24 23 22 21 21 21 20 19 17 16 15 15
27 26 24 24 24 25 26 26 25 24 22 21 19 18 17 16 14 12 10 11 13 16 17 15 11 10 10 9 8 6 4 4 4 5 5 4 5 6 9 9 6 5 5 7 9 8 8 9 10 12 15 17 19 20 21 23 25 27 28 29 30 31 31 31 32 32 31 31 30 28 27 25 24 23 21 20 18 18 17 15 13 13 13 13 13
24 24 24 24 24 24 24 25 25 24 23 21 19 18 17 17 17 17 16 16 15 15 14 12 10 9 8 9 8 6 5 6 6 5 3 5 7 8 7 7 7 5 5 8 10 9 9 9 10 12 15 17 18 20 23 24 26 27 27 28 29 31 32 32 31 30 31 30 28 26 26 25 23 21 19 17 16 15 13 11 8 8 10 11 12
27 27 27 26 25 25 24 24 24 23 22 21 20 19 18 18 17 17 16 15 14 13 11 11 10 9 9 9 8 5 5 6 6 5 4 5 6 6 5 8 8 5 4 6 9 10 10 10 11 13 15 16 18 21 24 25 26 27 28 29 30 31 31 30 29 29 29 28 25 24 24 23 21 19 18 15 14 12 11 8 7 5 4 5 7
28 27 27 27 26 26 25 24 23 22 20 19 18 17 16 15 15 15 14 14 13 11 10 10 10 9 9 8 7 5 5 6 5 5 5 4 4 4 5 8 6 4 5 7 9 11 11 11 11 14 15 16 18 22 24 26 28 29 29 29 30 31 29 28 27 27 27 25 22 22 22 21 19 18 17 14 12 11 9 7 5 4 2 2 4
28 27 26 25 24 23 22 21 20 20 19 18 17 17 15 14 14 13 13 12 11 10 10 10 10 9 9 8 6 6 6 7 5 5 6 7 6 5 7 8 6 5 6 7 8 11 12 11 11 14 15 16 19 22 24 27 31 32 30 29 30 30 28 26 26 26 27 24 21 21 21 20 19 18 16 15 13 10 7 6 5 2 0 2 4
25 25 24 24 22 21 19 18 17 17 16 16 16 16 16 15 14 13 12 12 11 11 10 10 9 9 8 8 7 6 7 6 5 5 6 7 7 7 7 8 7 6 6 7 9 11 12 11 12 15 17 17 19 21 24 29 33 33 30 28 29 29 27 25 25 26 26 24 21 21 21 21 20 18 17 15 14 11 9 7 5 4 4 6 8
22 22 22 22 21 19 18 17 17 16 15 15 15 16 16 15 15 14 13 12 12 11 10 10 9 9 8 8 7 7 7 7 6 5 6 7 8 7 7 7 7 6 6 8 10 11 12 12 14 17 19 19 19 21 25 30 32 31 29 27 27 28 27 25 24 26 26 24 21 21 21 20 20 20 18 16 14 13 12 10 9 9 10 11 12
21 20 20 20 19 18 17 17 16 16 15 15 15 15 15 15 14 14 13 13 12 11 10 10 10 9 9 9 8 7 7 6 6 5 5 6 7 7 7 8 8 7 8 9 9 10 11 12 15 17 19 19 19 22 27 30 30 29 28 26 25 26 27 25 23 25 26 23 20 20 20 20 20 20 19 17 16 14 13 13 12 12 13 14 14
Wind_Direction
174 171 174 175 172 177 183 185 184 184 194 194 172 176 186 188 200 207 202 200 200 201 202 202 205 203 201 203 203 200 197 197 195 188 190 188 182 185 182 174 179 179 175 174 173 177 180 175 215 285 330 2 350 331 329 319 305 298 284 270 278 279 279 287 291 295 298 300 305 307 307 307 309 309 310 310 308 308 306 303 300 295 289 286 285
195 182 177 170 166 175 182 183 185 185 195 200 189 190 193 192 204 216 212 207 206 207 208 209 211 208 206 207 206 205 203 201 199 195 196 196 191 194 191 183 186 186 181 186 187 184 186 191 190 209 251 313 331 329 334 337 334 324 318 321 321 318 317 312 306 304 301 301 303 302 301 304 305 304 304 304 303 303 302 300 298 297 295 289 285
175 203 200 167 156 164 167 175 188 189 191 196 196 205 209 206 210 225 232 221 218 219 217 216 218 214 213 213 210 209 207 204 202 199 199 201 197 198 198 191 194 193 187 191 195 188 185 190 196 207 231 277 311 312 318 324 326 326 327 330 324 314 309 304 300 295 293 297 301 302 304 305 303 301 300 298 299 299 297 296 295 293 293 291 289
166 188 201 160 116 99 68 237 235 221 198 189 187 200 210 209 212 224 235 237 243 244 231 224 223 221 218 217 216 213 209 207 206 203 204 204 201 201 201 196 198 198 193 194 196 190 185 190 199 209 216 228 267 288 298 304 306 319 326 324 318 316 317 314 309 306 304 305 305 305 305 304 301 301 300 299 299 298 296 295 294 293 292 291 291
144 164 172 173 175 183 243 250 244 236 216 196 188 200 211 214 220 231 235 237 247 256 252 238 227 224 224 222 221 219 214 211 209 206 207 207 204 203 202 200 201 200 198 197 195 192 191 197 203 204 207 216 241 265 280 298 307 313 319 319 317 315 319 320 315 312 309 305 304 305 304 301 299 299 299 298 296 295 294 293 292 292 291 290 290
117 137 149 160 170 172 178 197 212 222 226 217 205 209 217 222 230 238 238 234 235 246 256 253 236 227 225 225 226 225 220 216 214 210 208 208 207 205 204 204 202 200 201 199 200 204 204 204 207 204 205 216 230 249 271 291 301 309 312 314 315 315 318 318 314 310 306 301 301 302 301 300 298 297 298 298 296 298 299 296 292 289 287 289 293
120 121 123 137 153 158 162 175 194 212 220 218 212 212 214 218 225 233 234 229 230 240 252 260 254 241 235 232 229 228 224 220 217 213 210 210 209 207 206 206 202 201 203 200 201 209 208 204 207 210 212 217 222 228 234 242 260 283 299 306 311 313 315 315 313 310 307 302 299 298 298 299 298 297 297 296 295 296 298 298 301 302 300 301 304
140 137 127 130 141 144 149 167 188 202 205 206 211 209 207 207 214 226 230 226 229 237 247 258 262 254 250 248 240 233 229 224 217 211 211 213 210 208 207 205 202 200 200 200 201 203 203 204 208 214 218 219 220 222 225 247 274 279 282 293 306 312 315 316 316 315 312 308 304 302 302 301 300 300 302 301 300 300 302 309 316 316 311 306 305
142 144 141 140 153 154 151 168 186 197 200 199 205 210 212 214 218 226 231 228 227 230 233 241 246 241 240 244 245 243 242 239 228 213 210 213 210 209 208 204 202 200 197 198 201 201 204 209 211 215 223 229 231 233 248 276 286 282 281 283 286 296 309 316 318 317 313 309 306 305 305 303 302 305 309 310 311 311 311 311 308 305 303 299 296
125 133 132 131 146 158 165 175 176 183 197 198 203 215 222 228 231 233 235 232 228 226 226 230 237 237 236 239 244 244 242 245 240 220 215 217 210 207 207 202 202 202 198 197 200 202 205 210 214 219 226 236 243 250 267 283 285 281 282 284 284 289 300 309 311 308 305 301 299 300 301 298 298 303 308 310 310 311 311 310 306 304 302 296 292
129 125 121 128 152 168 166 170 181 194 202 198 205 215 217 224 231 232 234 233 230 227 228 232 236 238 239 242 246 243 239 240 236 223 220 218 209 202 201 200 201 201 199 199 199 202 204 210 221 227 231 241 251 259 271 281 284 288 288 284 282 285 293 301 301 297 293 290 291 293 295 295 297 302 306 308 312 315 319 321 320 317 313 306 300
151 147 142 155 168 160 143 156 215 223 220 258 262 253 239 239 242 242 241 241 237 233 234 238 241 241 240 242 244 241 239 239 234 225 221 213 203 197 195 195 198 199 200 201 202 206 209 213 223 233 238 243 247 253 264 271 280 289 288 278 275 280 288 293 291 287 283 280 282 285 286 291 297 302 303 305 310 315 316 317 315 315 313 310 307
165 159 163 172 155 137 169 208 218 197 135 291 301 307 290 273 267 263 257 255 253 248 245 249 252 247 240 242 243 239 233 228 224 220 215 206 197 192 190 191 193 196 202 206 207 213 215 215 219 229 241 246 246 248 257 265 274 278 274 269 273 280 287 290 288 286 282 277 274 274 277 284 289 292 294 297 303 308 310 311 311 314 315 312 309
177 168 174 188 164 167 214 208 135 41 360 320 305 302 292 286 285 278 270 269 265 257 251 250 253 251 242 237 238 234 228 223 218 213 206 199 193 187 185 191 194 196 205 210 211 216 219 222 227 232 242 250 252 256 256 257 265 270 265 266 274 282 289 292 294 294 289 280 273 271 274 277 279 284 288 290 293 298 304 308 308 308 306 302 299
194 195 197 206 213 215 217 200 45 343 323 310 295 294 293 290 288 281 272 270 271 267 255 244 242 244 238 223 219 222 224 223 218 209 198 193 191 185 180 186 192 195 205 211 212 218 224 231 238 241 247 253 257 261 259 255 257 263 266 271 276 281 285 287 288 291 290 286 280 277 278 278 277 279 281 280 282 286 291 295 296 297 297 294 292
225 216 202 212 230 218 195 180 232 268 285 290 289 294 294 292 292 287 276 268 268 273 268 256 247 241 234 226 220 215 212 213 212 205 197 196 198 194 188 186 189 194 207 214 217 224 230 235 241 245 252 259 261 262 260 257 257 259 265 272 278 282 282 282 283 286 288 286 283 283 284 284 283 281 280 281 284 286 288 289 289 290 291 289 286
236 226 217 231 236 217 204 222 241 251 264 273 280 289 294 297 296 291 285 274 265 265 267 264 259 251 242 236 226 212 204 205 206 201 198 203 205 199 194 193 195 205 218 221 221 228 233 238 243 248 256 264 268 268 266 266 266 268 272 276 280 282 281 281 285 288 289 287 285 285 285 285 286 285 284 284 284 285 284 282 283 284 282 281 280
238 235 239 250 249 235 232 239 249 261 271 275 280 286 289 289 288 287 285 279 271 268 268 266 265 262 252 238 223 211 204 201 199 197 198 201 199 191 192 202 210 219 226 225 225 232 240 247 249 249 253 258 263 265 264 266 269 273 277 280 281 281 282 286 290 290 289 285 284 284 284 281 281 284 286 286 284 280 276 274 276 277 273 273 277
262 264 266 271 272 264 255 252 256 262 267 270 272 276 278 279 280 282 280 276 271 266 266 267 266 262 252 228 214 208 199 190 188 191 191 189 184 178 184 206 219 228 233 232 234 237 247 262 259 249 248 252 258 263 264 267 270 272 279 284 285 285 287 290 290 290 291 289 287 286 285 283 283 284 285 284 283 279 275 275 275 271 266 268 274
264 265 267 270 271 267 258 251 249 250 254 259 260 262 267 272 275 276 275 274 268 263 268 273 261 229 198 189 190 195 189 180 178 181 178 175 177 174 170 184 228 279 269 257 264 267 275 287 278 259 253 255 261 270 275 280 286 288 290 292 290 288 288 288 289 292 294 294 292 291 288 286 285 284 283 281 279 277 274 273 270 265 262 265 269
259 260 263 265 265 264 261 256 251 251 252 255 256 257 259 263 267 271 272 270 264 259 264 266 148 132 143 165 171 179 183 177 171 169 166 168 177 178 172 173 275 321 302 288 302 311 312 305 291 267 261 268 274 283 292 299 303 303 304 301 297 294 293 294 296 299 299 297 296 293 291 289 286 284 283 282 280 278 274 271 268 264 262 262 265
259 258 259 259 259 260 260 258 254 253 253 254 257 256 255 259 263 266 267 265 262 254 223 161 134 123 123 138 153 165 173 171 165 161 160 163 170 173 181 208 257 295 303 307 311 314 315 308 296 277 283 295 302 306 310 313 314 315 316 314 309 307 304 302 301 301 298 295 295 294 293 293 290 287 285 283 280 279 277 276 274 270 265 262 262
261 261 259 259 259 259 259 258 253 251 252 254 254 251 251 256 259 262 263 259 253 224 157 149 139 126 120 123 142 158 161 159 157 156 157 161 167 175 197 231 256 273 283 287 292 299 303 300 295 295 301 307 313 317 319 321 324 327 326 320 315 311 306 301 299 296 294 292 292 291 291 290 287 285 284 283 281 280 279 279 280 279 277 273 269
261 261 260 259 259 258 258 258 255 253 252 252 252 248 247 251 255 260 263 255 228 176 157 152 141 130 123 123 136 150 151 149 151 154 159 168 180 193 212 235 260 276 283 280 284 292 291 284 283 288 294 301 311 319 325 331 333 331 325 318 312 307 303 300 297 293 292 291 289 287 286 285 283 282 282 281 281 281 281 281 282 282 282 283 281
260 259 260 261 260 258 257 255 252 252 250 250 252 248 241 243 250 255 258 234 178 158 155 149 141 137 133 128 134 146 150 147 146 148 156 162 159 155 161 171 8 7 5 335 291 287 284 279 280 287 295 306 315 320 326 332 331 327 324 321 315 308 303 297 292 289 288 288 286 284 283 283 283 284 284 282 280 280 279 280 280 279 279 280 282
264 264 264 264 263 262 261 258 255 254 251 248 249 246 243 247 250 244 216 177 161 152 145 142 145 148 143 134 136 145 147 144 141 141 144 145 139 130 112 53 3 355 357 346 289 279 281 282 288 299 310 317 314 308 308 318 324 325 325 325 321 315 307 298 293 293 294 294 293 290 288 288 288 287 287 284 281 280 279 278 277 275 274 275 276
265 268 268 269 268 266 265 266 264 262 259 258 253 246 239 234 214 184 170 166 158 149 142 141 145 147 140 136 142 149 148 144 142 143 144 145 147 151 95 18 2 348 335 307 288 292 296 299 309 322 326 325 320 312 307 313 322 326 327 326 323 319 315 309 305 303 298 295 293 291 290 291 289 288 288 286 283 282 281 278 276 274 274 273 273
250 252 256 261 262 262 263 266 265 262 264 272 268 219 158 169 178 172 174 178 171 160 154 153 156 156 150 148 147 143 140 143 146 147 149 149 147 152 151 117 28 312 299 298 302 314 327 335 337 334 333 338 341 335 326 325 328 327 325 322 318 314 312 309 306 302 298 296 295 295 296 296 293 291 291 289 286 284 284 282 278 276 275 273 270
247 242 246 255 259 260 258 256 255 255 250 182 125 127 132 149 167 174 185 193 182 164 157 158 161 157 151 148 142 134 130 133 137 140 143 144 144 155 179 246 297 312 321 326 336 358 4 349 338 340 346 349 346 339 334 331 327 322 319 316 312 309 308 307 305 304 302 302 301 301 301 300 297 295 293 289 287 285 284 283 281 277 275 271 266
264 251 245 248 255 258 257 252 252 249 192 136 131 128 126 138 163 180 187 182 168 159 156 156 156 149 139 133 134 133 128 124 123 125 125 121 112 112 108 47 32 31 24 19 15 357 339 337 344 351 351 346 338 332 328 323 320 317 317 316 315 313 311 308 306 304 303 302 302 301 300 298 295 293 290 286 284 283 281 280 280 278 275 271 268
275 264 249 243 247 254 258 262 264 242 158 142 137 126 115 112 121 136 147 150 147 145 144 143 144 143 135 127 124 122 117 113 113 108 99 86 75 82 91 79 65 53 35 23 12 349 339 347 353 350 343 337 330 325 324 324 321 320 319 317 314 313 310 307 304 302 301 300 299 297 296 294 291 290 288 285 282 281 279 278 276 274 271 269 268
268 266 260 255 256 258 260 261 252 179 143 141 138 128 117 107 103 107 118 126 126 124 124 124 123 122 122 121 119 115 111 110 105 89 73 70 83 100 108 95 76 56 29 12 354 342 354 360 353 344 339 336 332 331 331 330 326 323 320 316 312 310 308 305 303 302 300 298 296 294 293 292 289 287 286 283 281 278 277 275 273 270 268 267 265
260 259 256 254 253 252 252 245 205 156 146 145 141 135 128 121 113 107 108 111 113 113 113 114 113 112 112 114 115 114 112 106 94 81 76 91 110 124 134 128 107 59 23 357 326 338 9 7 350 340 339 336 335 335 333 329 326 323 319 315 312 309 307 306 304 302 299 296 294 292 291 291 290 287 284 282 279 276 274 273 271 268 265 263 261
256 253 249 248 245 242 240 220 177 157 152 152 149 144 139 134 128 121 116 113 112 110 110 112 115 116 115 114 114 115 113 105 94 87 90 106 128 152 199 239 240 251 309 308 309 349 12 3 345 342 341 338 337 335 331 327 326 323 319 315 312 310 308 307 304 301 298 296 293 291 291 291 290 287 285 281 278 275 273 271 269 266 261 259 259
254 252 250 247 238 225 207 183 167 156 151 153 155 148 140 135 131 127 123 118 114 111 112 114 116 117 119 121 120 118 114 108 101 97 98 104 123 194 282 283 277 281 293 295 321 359 5 354 345 344 341 337 336 333 330 329 327 324 320 316 313 311 310 307 304 301 298 296 294 293 293 293 290 287 284 280 277 274 271 269 267 264 261 261 260
251 252 249 237 218 194 174 166 161 154 149 150 148 141 135 132 129 125 123 121 119 119 120 122 123 125 126 125 124 126 127 124 119 115 112 114 108 356 331 330 4 29 2 344 2 8 359 350 347 344 339 335 333 332 331 331 329 324 319 316 313 311 309 306 304 302 299 297 296 295 295 293 290 287 284 280 275 272 269 268 266 263 261 260 260
245 242 228 207 193 179 165 157 153 148 144 141 138 133 129 127 126 126 125 124 125 128 132 135 137 137 139 139 143 149 151 152 158 159 153 153 135 12 342 339 17 29 7 1 10 7 355 348 346 341 338 334 331 331 332 330 327 323 319 317 315 312 310 307 305 303 301 298 297 296 295 293 291 288 285 280 276 273 269 267 266 263 261 260 259
236 228 206 183 169 156 146 142 141 137 135 135 135 132 128 126 127 129 129 129 132 135 141 148 152 156 160 162 165 171 178 187 198 201 201 203 212 256 309 350 30 31 10 359 5 3 351 346 344 342 337 331 328 328 327 326 327 326 323 320 318 316 314 312 308 305 303 300 298 298 296 294 292 291 287 281 277 274 271 268 265 263 262 260 257
225 215 193 170 155 144 137 135 136 135 135 137 138 136 133 131 130 132 133 134 137 144 154 164 175 182 179 172 170 180 195 216 232 236 233 227 227 247 351 22 26 17 357 354 3 0 349 344 342 339 333 328 326 325 322 322 327 328 326 325 323 320 317 314 311 308 306 304 302 301 299 296 295 294 290 284 279 276 273 271 268 264 262 259 255
179 171 161 149 141 136 134 133 135 135 136 137 137 137 136 132 132 136 141 146 157 169 174 175 180 185 183 180 180 189 210 242 255 249 236 213 191 22 25 25 16 5 2 4 3 354 346 344 341 337 332 328 326 324 320 321 325 327 327 327 325 321 317 315 313 311 310 307 305 303 301 299 298 296 290 285 282 278 275 272 270 266 263 259 256
126 127 129 129 129 131 132 134 135 135 135 136 138 140 140 138 141 145 151 162 176 180 167 150 145 153 164 171 175 183 210 288 323 343 66 69 56 34 23 21 18 15 12 4 354 348 346 344 340 336 332 328 326 325 323 325 328 330 328 326 325 322 319 317 315 314 313 312 309 307 305 304 302 298 294 291 289 285 280 275 272 268 264 259 254
114 115 119 124 127 128 129 130 131 132 134 136 138 140 140 141 147 156 168 184 190 168 134 123 121 124 135 148 148 142 114 30 29 45 61 55 41 20 10 16 20 18 8 355 350 350 348 345 342 336 330 329 331 331 329 329 333 333 330 327 325 323 321 320 319 319 318 317 316 314 313 311 308 306 304 302 299 295 290 285 279 271 263 256 249
117 120 122 124 123 122 123 126 130 134 137 140 143 147 151 157 165 173 181 188 176 137 116 111 102 86 79 78 83 98 96 55 37 50 63 50 16 6 27 33 29 20 6 352 349 352 349 345 341 333 328 332 338 338 335 335 336 335 332 329 327 325 324 324 324 323 323 323 323 322 321 320 318 315 313 311 308 304 302 296 285 271 261 254 246
119 118 116 114 112 114 118 121 124 128 132 136 139 144 146 146 144 136 119 104 97 95 95 94 87 76 72 75 78 80 76 60 46 44 44 27 15 31 39 29 15 13 10 356 351 353 350 342 337 332 331 336 341 342 340 340 338 336 333 331 330 329 329 329 329 330 330 330 330 329 328 328 326 323 321 322 319 315 315 312 295 273 261 255 245
107 105 104 103 103 104 105 104 103 102 102 104 104 101 100 98 94 90 87 83 80 81 84 84 84 82 80 79 76 63 53 60 62 54 30 12 20 33 27 359 347 4 16 358 350 349 346 340 337 337 337 340 345 345 343 342 341 340 338 335 333 333 335 336 337 340 341 339 338 337 335 333 333 332 333 336 334 327 325 324 312 287 267 254 242
86 89 91 90 89 89 89 90 91 89 88 89 89 87 86 89 90 90 91 89 86 87 89 87 85 82 76 74 73 63 52 57 55 35 356 352 14 25 5 343 343 359 19 2 351 348 345 341 341 345 346 345 345 346 346 346 346 344 342 340 339 341 344 346 348 350 350 346 345 344 340 339 341 343 344 347 345 338 332 330 323 309 281 248 229
77 78 80 81 81 82 84 86 88 87 84 84 86 87 89 92 93 93 93 92 90 91 91 88 87 83 77 74 73 65 58 62 52 18 356 11 40 31 354 341 341 4 29 15 356 348 345 339 342 352 355 348 345 346 348 349 348 347 346 347 347 349 352 355 355 356 355 353 353 352 349 349 353 355 356 356 351 345 347 355 345 317 276 216 201
74 74 76 77 77 78 81 84 86 86 85 84 86 88 90 92 92 91 90 88 85 83 82 80 81 81 79 76 73 64 60 61 50 23 20 35 40 17 353 349 354 11 21 14 360 354 348 340 343 356 357 349 346 349 349 349 350 350 350 352 353 354 357 360 1 0 360 359 1 4 4 4 6 6 7 8 6 1 7 22 23 5 181 152 159
73 74 75 76 75 76 80 82 84 85 85 85 84 84 84 84 83 82 82 81 78 77 75 74 73 75 75 72 68 64 61 56 47 33 28 26 17 5 359 359 359 4 13 13 4 357 349 341 348 360 358 351 350 351 348 348 351 352 352 354 355 356 359 3 5 4 3 3 7 12 15 17 19 18 15 17 22 26 32 42 55 78 104 117 130
68 70 71 73 73 74 76 78 80 82 83 84 84 82 81 79 76 74 75 75 72 69 68 68 67 66 66 64 62 62 58 51 45 39 25 10 3 2 2 360 359 10 19 14 4 357 350 344 350 358 358 355 353 349 346 348 352 353 354 355 356 358 1 5 7 7 7 8 11 16 20 23 26 27 25 27 33 40 48 58 73 91 103 109 115
64 66 68 69 70 72 72 73 74 75 76 78 80 79 77 76 74 71 71 71 67 63 61 60 57 55 55 55 56 57 55 48 42 38 26 11 4 2 1 360 1 5 7 3 0 359 354 349 349 353 357 356 351 345 345 348 352 355 356 358 359 360 3 7 9 11 12 14 16 20 25 29 30 31 32 34 39 46 55 65 76 89 99 107 112